Tracking 19709 objects as of 20-Jun-2019
HD Live streaming from Space Station
objects crossing your sky now

MICROSAT-R DEB

Track MICROSAT-R DEB now!
10-day predictions


NORAD ID: 44215
Int'l Code: 2019-006CR
Perigee: 247.5 km
Apogee: 391.0 km
Inclination: 94.8 °
Period: 90.8 minutes
Semi major axis: 6690 km
RCS: Unknown
Launch date: January 24, 2019
Source: India (IND)
Launch site: SRIHARIKOTA (SRI)

Note: This is SATELLITE DEBRIS
aabbcc
Your satellite tracking list
Your tracking list is empty




NASA's NSSDC Master Catalog

Two Line Element Set (TLE):
1 44215U 19006CR  19134.42456889  .03214949  84068-2  88385-2 0  9990
2 44215  94.7988  30.8440 0107262 199.5679 159.7056 15.86489009  5161
Source of the keplerian elements: AFSPC